軌道要素
Epoch 2013 Jan. 28.0 TT = JDT 2456320.5
T 2013 Jan. 18.19775 TT MPC
q 2.0162038 (2000.0) P Q
z +0.0263645 Peri. 268.83196 -0.19405696 -0.97756115
+/-0.0000000 Node 193.24426 +0.98035715 -0.19025294
e 0.9468438 Incl. 20.95945 +0.03523862 -0.09043236
From 126 observations 2012 Dec. 18-2013 Apr. 3, mean residual 0".5.
|